Погода в Озерках

Россия / Тамбовская область     52°49′13″N   40°46′31″E
темп.,
°C
ветер,
м/с
пор.,
м/с
влажн.,
%
обл.,
%
осадки,
мм/ч
давл.,
гПа
погр.,
м
23 апреля, пт
пт2300:00+9ю466636 0.0 102075
03:00+9ю3675100 0.0 1020117
06:00+9ю36845 0.0 1020116
09:00+13ю566324 0.3 1020477
12:00+16ю5745100 1.4 10182459
15:00+15ююв465594 1.7 1017771
18:00+15ю475775 0.1 1016309
21:00+11ююв4107742 0.1 1015187
24 апреля, сб
сб2400:00+9ююв5128664 0.1 1014267
03:00+8ююв5118872 0.1 1011241
06:00+8ю4891100 0.1 1010244
09:00+10ююз61174100 0.3 10081150
12:00+4зсз71092100 1.9 1009588
15:00+7зсз587290 4.1 10091138
18:00+8з61165100 0.9 10091156
21:00+4зюз612672 1.0 1010406
25 апреля, вс
вс2500:00+3зюз7137985 0.0 1010607
03:00+2зюз91485100 0.1 10111087
06:00+2з8158499 0.1 10131139
09:00+5з8116725 0.5 10151146
12:00+8з81044100 0.0 10162557
15:00+10зюз81135100 0.0 10152943
18:00+9зюз58465 0.0 10151195
21:00+6ю5135829 0.0 1015330
26 апреля, пн
пн2600:00+5юз7146199 0.0 1015720
03:00+4юз5892100 0.5 1015637
06:00+4юз468898 0.1 1015594
09:00+6зюз346899 0.2 10151083
12:00+7зюз3457100 0.1 10141249
15:00+9ююз3544100 0.1 10131868
18:00+8з3550100 0.0 1012466
21:00+6ююз2355100 0.0 101259
27 апреля, вт
вт2700:00+5зюз126799 0.0 101123
03:00+3зюз237618 0.0 101150
06:00+2юз358427 0.0 1011150
09:00+7зюз356157 0.3 1011844
12:00+8зюз7850100 1.1 10112145
15:00+8з794899 1.8 10112316
18:00+8з585089 0.3 10111432
21:00+4зюз386817 0.4 1012181